Starlink 34069

operational
NORAD ID: 64920 Int'l Des: 2025-157 Owner: SPXS Country: US Constellation: starlink
LEOCIRCULAR

About Starlink 34069

Description loading...

Live Position

Loading 3D Globe...

Upcoming Passes

Altitude History

Altitude vs Time

uPlot chart will show altitude changes over time

Two-Line Element Set

1 64920U 25157S 26062.11318888 .00026800 00000-0 91367-3 0 9990
2 64920 53.1605 16.4477 0000555 133.8736 226.2310 15.30201837 35114
Epoch: Mar 3, 2026 • Age: 23 hours

Current Status

Altitude 476.2 km
Velocity 7.63 km/s
Sub-Earth Point 0.01°N, 135.64°W
Launch Date Jul 26, 2025
Age 0.6 years
Type internet

Technical Details

Classification Payload
Mass 575.00 kg
Dry Mass 530.00 kg
Total Mass 575.00 kg
Length 0.30 m
Diameter 4.10 m
Span 29.00 m
Shape Box + pan
Manufacturer SPXS
Bus Type Starlink V2MO
Phase Status In Orbit
Owner/State SPXS/US

Large Constellations

Loading constellations...